Back to catalog

CZ-6A DEB

AliveSSO
NORAD 55891·DEBRIS·🇨🇳 China

Launched Nov 11, 2022 from Taiyuan Satellite Launch Center

Loading…

Next Passes (next 24 hours)

TLE

FreshSource: Space-Track

Epoch: Sep 13, 2026, 21:31 UTC

1 55891U 22151AAP 26256.89699338  .00000302  00000-0  19560-3 0  9994
2 55891  98.8553 251.2254 0061268 115.0083 245.7466 14.09117760191933

Track CZ-6A DEB in real time with AllMySat

Download on the App Store